Change the Weather History Date:

Sunday, August 17, 2014

  Actual Average Record
Temperature  
Mean Temperature 76 °F 78 °F  
Max Temperature 87 °F 89 °F 109 °F (1936)
Min Temperature 64 °F 66 °F 51 °F (2012)
Degree Days  
Heating Degree Days 0 0  
Month to date heating degree days 0 0  
Since 1 June heating degree days 0 8  
Since 1 July heating degree days 0 0  
Cooling Degree Days 11 13  
Month to date cooling degree days 215 230  
Year to date cooling degree days 1138 1072  
Since 1 June cooling degree days 921 946  
Growing Degree Days 26 (Base 50)    
Moisture  
Dew Point 67 °F    
Average Humidity 77    
Maximum Humidity 100    
Minimum Humidity 53    
Precipitation  
Precipitation 0.00 in 0.14 in 2.63 in (2009)
Month to date precipitation 2.30 2.32  
Year to date precipitation 16.95 24.65  
Snow  
Snow 0.00 in 0.00 in 0.00 in ()
Month to date snowfall T 0.0  
Year to date snowfall 23.1 11.3  
Since 1 July snowfall T 0.0  
Snow Depth 0.00 in    
Sea Level Pressure  
Sea Level Pressure 29.94 in    
Wind  
Wind Speed 5 mph (NNE)    
Max Wind Speed 14 mph    
Max Gust Speed 18 mph    
Visibility 5 miles    
Events Fog    
T = Trace of Precipitation, MM = Missing Value Source: NWS Daily Summary

Daily Weather History Graph

Daily Weather History Graph

Search for Another Location

Airport or City:

Trip Planner

Search our weather history database for the weather conditions in past years. The results will help you decide how hot, cold, wet, or windy it might be!

Date:

Astronomy

Aug. 17, 2014 Rise Set
Actual Time 6:37 AM CDT 8:14 PM CDT
Civil Twilight 6:09 AM CDT 8:43 PM CDT
Nautical Twilight 5:34 AM CDT 9:17 PM CDT
Astronomical Twilight 4:58 AM CDT 9:53 PM CDT
Moon 12:03 AM CDT (8/17) 2:20 PM CDT (8/17)
Length of Visible Light 14h 33m
Length of Day
13h 37m
Waning Gibbous, 48% of the Moon is Illuminated
Aug 17
Waning Gibbous
Aug 25
New
Sep 2
First Quarter
Sep 8
Full
Sep 15
Last Quarter

Hourly Weather History & Observations

Time (CDT) Temp. Heat Index Dew Point Humidity Pressure Visibility Wind Dir Wind Speed Gust Speed Precip Events Conditions
12:53 AM 68.0 °F - 66.0 °F 93% 29.91 in 10.0 mi Calm Calm - N/A   Clear
1:53 AM 66.2 °F - 66.2 °F 100% 29.93 in 6.0 mi Calm Calm - N/A   Clear
2:29 AM 66.9 °F - 66.9 °F 100% 29.93 in 1.5 mi Calm Calm - N/A   Clear
2:32 AM 66.0 °F - 66.0 °F 100% 29.93 in 0.5 mi Calm Calm - N/A Fog Fog
2:42 AM 66.0 °F - 66.0 °F 100% 29.93 in 0.5 mi Calm Calm - N/A Fog Fog
2:50 AM 66.2 °F - 66.2 °F 100% 29.93 in 1.0 mi NW 4.6 mph - N/A   Mist
2:53 AM 66.0 °F - 66.0 °F 100% 29.91 in 1.8 mi NW 5.8 mph - N/A   Partly Cloudy
2:55 AM 66.9 °F - 66.0 °F 97% 29.93 in 3.0 mi NW 5.8 mph - N/A   Partly Cloudy
3:53 AM 64.9 °F - 64.9 °F 100% 29.91 in 0.8 mi WNW 3.5 mph - N/A   Clear
4:03 AM 66.0 °F - 64.9 °F 96% 29.93 in 2.5 mi Calm Calm - N/A   Clear
4:10 AM 66.0 °F - 66.0 °F 100% 29.93 in 7.0 mi Calm Calm - N/A   Clear
4:53 AM 66.9 °F - 66.0 °F 97% 29.91 in 10.0 mi Calm Calm - N/A   Clear
5:12 AM 64.9 °F - 63.0 °F 93% 29.93 in 1.8 mi Calm Calm - N/A   Partly Cloudy
5:16 AM 64.9 °F - 64.0 °F 97% 29.93 in 0.8 mi Calm Calm - N/A   Mist
5:23 AM 66.0 °F - 64.9 °F 96% 29.94 in 1.2 mi Calm Calm - N/A   Partly Cloudy
5:26 AM 66.0 °F - 64.9 °F 96% 29.94 in 4.0 mi West 3.5 mph - N/A   Partly Cloudy
5:53 AM 64.0 °F - 63.0 °F 96% 29.93 in 5.0 mi Calm Calm - N/A   Partly Cloudy
5:55 AM 64.0 °F - 62.1 °F 93% 29.95 in 1.5 mi Calm Calm - N/A   Partly Cloudy
5:57 AM 64.0 °F - 63.0 °F 96% 29.95 in 0.8 mi Calm Calm - N/A   Mist
6:04 AM 64.4 °F - 64.4 °F 100% 29.95 in 0.5 mi Calm Calm - N/A Fog Fog
6:18 AM 64.9 °F - 64.9 °F 100% 29.95 in 1.0 mi Calm Calm - N/A   Mist
6:21 AM 64.0 °F - 64.0 °F 100% 29.95 in 2.5 mi Calm Calm - N/A   Partly Cloudy
6:28 AM 64.0 °F - 64.0 °F 100% 29.95 in 8.0 mi Calm Calm - N/A   Partly Cloudy
6:31 AM 64.0 °F - 63.0 °F 96% 29.95 in 1.8 mi Calm Calm - N/A   Scattered Clouds
6:33 AM 64.0 °F - 64.0 °F 100% 29.95 in 0.8 mi Calm Calm - N/A   Mist
6:40 AM 64.0 °F - 64.0 °F 100% 29.96 in 0.2 mi Calm Calm - N/A Fog Fog
6:53 AM 64.0 °F - 64.0 °F 100% 29.94 in 2.0 mi Calm Calm - N/A   Scattered Clouds
7:00 AM 64.0 °F - 64.0 °F 100% 29.97 in 6.0 mi Calm Calm - N/A   Scattered Clouds
7:09 AM 64.0 °F - 64.0 °F 100% 29.97 in 2.0 mi North 3.5 mph - N/A   Mostly Cloudy
7:16 AM 64.9 °F - 64.0 °F 97% 29.97 in 1.0 mi NNW 3.5 mph - N/A   Mostly Cloudy
7:22 AM 66.0 °F - 64.9 °F 96% 29.97 in 4.0 mi Calm Calm - N/A   Overcast
7:38 AM 66.9 °F - 66.9 °F 100% 29.98 in 1.0 mi North 4.6 mph - N/A   Overcast
7:45 AM 66.9 °F - 66.9 °F 100% 29.98 in 0.2 mi North 3.5 mph - N/A Fog Fog
7:53 AM 68.0 °F - 68.0 °F 100% 29.96 in 0.2 mi NNE 3.5 mph - N/A Fog Fog
8:06 AM 68.0 °F - 68.0 °F 100% 29.99 in 1.0 mi Calm Calm - N/A   Overcast
8:18 AM 68.0 °F - 68.0 °F 100% 29.99 in 0.5 mi NNW 3.5 mph - N/A Fog Fog
8:29 AM 69.1 °F - 69.1 °F 100% 29.99 in 1.0 mi North 3.5 mph - N/A   Overcast
8:35 AM 69.1 °F - 69.1 °F 100% 29.99 in 3.0 mi North 4.6 mph - N/A   Overcast
8:53 AM 70.0 °F - 69.1 °F 97% 29.98 in 7.0 mi ENE 4.6 mph - N/A   Mostly Cloudy
9:02 AM 71.1 °F - 69.1 °F 93% 30.00 in 8.0 mi NE 3.5 mph - N/A   Partly Cloudy
9:53 AM 73.9 °F - 70.0 °F 87% 29.98 in 10.0 mi NNE 4.6 mph - N/A   Scattered Clouds
10:53 AM 77.0 °F - 69.1 °F 76% 29.98 in 10.0 mi NE 5.8 mph - N/A   Partly Cloudy
11:53 AM 80.1 °F 82.9 °F 69.1 °F 69% 29.97 in 10.0 mi NNE 5.8 mph - N/A   Partly Cloudy
12:53 PM 81.0 °F 84.4 °F 70.0 °F 69% 29.95 in 10.0 mi Variable 3.5 mph - N/A   Clear
1:53 PM 82.9 °F 86.5 °F 69.1 °F 63% 29.94 in 10.0 mi East 6.9 mph - N/A   Clear
2:53 PM 86.0 °F 90.1 °F 69.1 °F 57% 29.94 in 10.0 mi NNE 6.9 mph - N/A   Clear
3:53 PM 86.0 °F 90.1 °F 69.1 °F 57% 29.93 in 10.0 mi Variable 3.5 mph - N/A   Clear
4:53 PM 87.8 °F 91.4 °F 68.0 °F 52% 29.93 in 10.0 mi East 5.8 mph - N/A   Clear
5:53 PM 87.1 °F 90.6 °F 68.0 °F 53% 29.89 in 10.0 mi NE 4.6 mph - N/A   Clear
6:53 PM 84.9 °F 88.8 °F 69.1 °F 59% 29.87 in 10.0 mi East 5.8 mph - N/A   Clear
7:53 PM 81.0 °F 84.4 °F 70.0 °F 69% 29.86 in 10.0 mi East 5.8 mph - N/A   Clear
8:53 PM 77.0 °F - 71.1 °F 82% 29.89 in 10.0 mi East 6.9 mph - N/A   Clear
9:53 PM 75.0 °F - 71.1 °F 87% 29.91 in 10.0 mi East 5.8 mph - N/A   Clear
10:53 PM 73.9 °F - 70.0 °F 87% 29.93 in 10.0 mi East 5.8 mph - N/A   Clear
11:53 PM 73.0 °F - 69.1 °F 87% 29.95 in 10.0 mi SE 5.8 mph - N/A   Clear